period_start,C,m1,H,J0,J1,J2,J3,J4,J5,JA,JB,JC,JD,JJ,JK,JN,#
2015-04-16 00:04:26,0.17,3.33,0.00,24.88,28.02,30.84,4.74,27.12,1025.40,2027.19,2263.16,2476.22,2677.31,349.67,348.33,19.61,0000 0000 0000 0000 000000
2015-04-16 00:09:28,0.25,3.33,0.00,24.18,28.03,30.94,4.82,27.13,1025.40,2027.09,2261.19,2474.79,2675.77,350.06,349.36,19.64,0000 0000 0000 0000 000000
2015-04-16 00:14:29,0.20,3.34,0.00,23.83,28.03,30.59,4.80,27.09,1025.41,2027.12,2259.49,2473.57,2674.43,349.94,349.46,19.67,0000 0000 0000 0000 000000
2015-04-16 00:19:30,0.30,3.35,0.00,24.20,28.02,30.19,4.76,27.06,1025.41,2027.40,2257.69,2472.37,2673.17,349.87,349.11,19.70,0000 0000 0000 0000 000000
2015-04-16 00:24:31,0.24,3.36,0.00,24.40,28.00,30.12,4.78,27.15,1025.41,2027.74,2256.12,2471.17,2671.83,349.96,348.99,19.73,0000 0000 0000 0000 000000
2015-04-16 00:29:32,0.23,3.36,0.00,24.42,27.98,30.25,4.75,27.26,1025.41,2027.79,2254.50,2469.89,2670.42,349.98,348.99,19.76,0000 0000 0000 0000 000000
2015-04-16 00:34:33,0.22,3.37,0.00,24.44,27.96,30.37,4.75,27.25,1025.41,2027.82,2252.83,2468.61,2669.02,349.99,349.15,19.79,0000 0000 0000 0000 000000
2015-04-16 00:39:35,0.21,3.38,0.00,24.64,27.95,30.47,4.85,27.31,1025.41,2027.94,2251.37,2467.49,2667.77,350.16,348.91,19.82,0000 0000 0000 0000 000000
2015-04-16 00:44:36,0.19,3.38,0.00,24.82,27.95,30.53,4.83,27.13,1025.40,2027.91,2249.78,2466.40,2666.51,350.28,348.89,19.85,0000 0000 0000 0000 000000
2015-04-16 00:49:37,0.18,3.39,0.00,25.09,27.95,30.57,4.75,27.18,1025.40,2027.90,2248.27,2465.16,2665.21,350.10,348.29,19.87,0000 0000 0000 0000 000000
2015-04-16 00:54:39,0.22,3.39,0.00,25.43,27.96,30.62,4.76,27.13,1025.40,2027.91,2246.70,2463.94,2663.91,350.02,347.90,19.90,0000 0000 0000 0000 000000
2015-04-16 00:59:40,0.20,3.40,0.00,24.75,27.97,30.76,4.80,27.15,1025.40,2027.68,2244.93,2462.60,2662.49,349.69,348.40,19.93,0000 0000 0000 0000 000000
2015-04-16 01:04:41,0.17,3.41,0.00,24.20,27.98,30.81,4.84,27.23,1025.40,2027.59,2243.26,2461.49,2661.17,350.10,349.35,19.96,0000 0000 0000 0000 000000
2015-04-16 01:09:42,0.25,3.41,0.00,23.92,27.97,30.47,4.79,27.07,1025.40,2027.76,2241.61,2460.32,2659.98,349.47,349.04,19.99,0000 0000 0000 0000 000000
2015-04-16 01:14:43,0.20,3.42,0.00,24.09,27.96,30.09,4.79,27.00,1025.35,2027.97,2240.21,2459.33,2658.86,350.29,349.56,20.02,0000 0000 0000 0000 000000
2015-04-16 01:19:44,0.20,3.42,0.00,24.45,27.93,29.98,4.81,27.19,1025.21,2027.98,2238.75,2458.26,2657.61,350.55,349.40,20.05,0000 0000 0000 0000 000000
2015-04-16 01:24:46,0.18,3.43,0.00,24.44,27.91,30.17,4.77,27.23,1025.17,2027.99,2237.32,2457.11,2656.44,350.25,348.93,20.08,0000 0000 0000 0000 000000
2015-04-16 01:29:47,0.21,3.44,0.00,24.54,27.89,30.28,4.83,27.44,1025.22,2027.99,2235.69,2455.91,2655.15,349.86,348.53,20.11,0000 0000 0000 0000 000000
2015-04-16 01:34:48,0.26,3.44,0.00,24.70,27.87,30.33,4.73,27.49,1025.26,2027.99,2233.83,2454.55,2653.62,349.61,348.40,20.14,0000 0000 0000 0000 000000
2015-04-16 01:39:50,0.21,3.45,0.00,24.92,27.87,30.41,4.86,27.36,1025.27,2027.99,2232.12,2453.21,2652.19,350.26,348.64,20.17,0000 0000 0000 0000 000000
2015-04-16 01:44:51,0.25,3.46,0.00,25.52,27.88,30.47,4.73,26.98,1025.32,2027.99,2230.24,2451.76,2650.60,350.14,347.70,20.20,0000 0000 0000 0000 000000
2015-04-16 01:49:53,0.23,3.46,0.00,25.26,27.90,30.56,4.67,27.17,1025.34,2027.99,2228.47,2450.46,2649.12,349.43,347.61,20.23,0000 0000 0000 0000 000000
2015-04-16 01:54:54,0.23,3.47,0.00,24.60,27.92,30.77,4.81,27.02,1025.39,2027.99,2226.63,2449.14,2647.70,350.58,349.41,20.26,0000 0000 0000 0000 000000
2015-04-16 01:59:55,0.22,3.48,0.00,24.21,27.92,30.69,4.85,26.94,1025.40,2027.99,2224.85,2447.93,2646.40,350.40,349.53,20.28,0000 0000 0000 0000 000000
2015-04-16 02:04:57,0.17,3.48,0.00,23.99,27.91,30.32,4.81,26.82,1025.40,2027.99,2223.48,2446.88,2645.34,349.87,349.50,20.31,0000 0000 0000 0000 000000
2015-04-16 02:09:58,0.15,3.49,0.00,24.16,27.89,29.98,4.73,26.83,1025.40,2027.99,2222.03,2446.00,2644.22,349.69,349.23,20.34,0000 0000 0000 0000 000000
2015-04-16 02:15:00,0.16,3.49,0.00,24.55,27.86,29.93,4.80,26.92,1025.40,2027.99,2220.83,2445.13,2643.36,350.51,349.47,20.37,0000 0000 0000 0000 000000
2015-04-16 02:20:01,0.15,3.50,0.00,24.47,27.84,30.11,4.76,26.98,1025.40,2028.01,2219.77,2444.37,2642.58,350.02,348.91,20.40,0000 0000 0000 0000 000000
2015-04-16 02:25:02,0.14,3.50,0.00,24.54,27.82,30.25,4.78,27.13,1025.39,2028.01,2218.64,2443.63,2641.64,349.99,348.75,20.43,0000 0000 0000 0000 000000
2015-04-16 02:30:03,0.14,3.51,0.00,24.93,27.82,30.31,4.77,27.12,1025.34,2028.02,2217.56,2442.75,2640.72,349.91,348.13,20.46,0000 0000 0000 0000 000000
2015-04-16 02:35:04,0.15,3.51,0.00,25.56,27.82,30.37,4.78,26.95,1025.22,2028.00,2216.29,2441.86,2639.74,350.14,347.76,20.49,0000 0000 0000 0000 000000
2015-04-16 02:40:06,0.14,3.52,0.00,25.30,27.82,30.45,4.76,26.97,1025.33,2028.00,2215.15,2440.97,2638.73,349.72,347.70,20.52,0000 0000 0000 0000 000000
2015-04-16 02:45:07,0.16,3.52,0.00,24.68,27.85,30.61,4.77,26.89,1025.30,2028.00,2213.82,2440.08,2637.82,350.40,348.83,20.55,0000 0000 0000 0000 000000
2015-04-16 02:50:08,0.15,3.53,0.00,24.34,27.85,30.61,4.83,27.06,1025.38,2028.00,2212.67,2439.25,2637.02,349.75,348.95,20.58,0000 0000 0000 0000 000000
2015-04-16 02:55:09,0.12,3.53,0.00,24.12,27.82,30.29,4.83,27.07,1025.30,2028.01,2211.68,2438.75,2636.21,349.82,349.02,20.61,0000 0000 0000 0000 000000
2015-04-16 03:00:11,0.12,3.53,0.00,23.97,27.80,29.99,4.74,26.91,1025.07,2028.10,2210.78,2438.03,2635.67,349.50,349.02,20.64,0000 0000 0000 0000 000000
2015-04-16 03:05:12,0.19,3.54,0.00,24.37,27.77,29.76,4.77,26.93,1024.98,2028.54,2209.95,2437.62,2635.01,350.20,349.23,20.67,0000 0000 0000 0000 000000
2015-04-16 03:10:13,0.16,3.54,0.00,24.29,27.74,29.80,4.79,27.04,1024.99,2028.94,2209.07,2437.03,2634.47,350.23,349.25,20.69,0000 0000 0000 0000 000000
2015-04-16 03:15:15,0.12,3.55,0.00,24.17,27.71,29.88,4.75,27.21,1024.96,2028.94,2208.16,2436.37,2633.79,350.23,349.38,20.72,0000 0000 0000 0000 000000
2015-04-16 03:20:16,0.10,3.55,0.00,24.26,27.69,29.99,4.81,27.27,1024.95,2028.97,2207.25,2435.89,2633.05,349.83,348.74,20.75,0000 0000 0000 0000 000000
2015-04-16 05:47:51,-3333.30,0.00,0.00,18.49,23.62,20.65,4.55,24.46,1023.71,1980.72,3387.35,3243.06,3519.31,327.74,332.76,0.00,0000 0000 0000 0000 000000
2015-04-16 05:52:52,0.00,0.00,0.00,18.56,23.38,22.05,4.85,25.63,1023.95,2047.05,3497.78,3351.07,3636.48,350.21,355.83,0.03,0000 0000 0000 0000 000000
2015-04-16 05:57:53,0.02,0.00,0.00,18.72,23.16,22.57,4.87,25.84,1024.05,2047.71,3496.54,3350.74,3636.06,350.05,355.40,0.06,0000 0000 0000 0000 000000
2015-04-16 06:02:55,0.07,0.01,0.00,18.94,22.97,23.01,4.79,25.59,1024.35,2048.53,3495.16,3350.48,3636.00,349.56,354.83,0.09,0000 0000 0000 0000 000000
2015-04-16 06:07:56,0.07,0.01,0.00,19.24,22.83,23.48,4.83,25.21,1024.43,2049.02,3494.98,3350.91,3636.00,349.91,354.73,0.12,0000 0000 0000 0000 000000
2015-04-16 06:12:57,0.10,0.01,0.00,19.59,22.72,23.99,4.89,25.18,1024.43,2049.75,3494.84,3350.99,3635.99,349.97,354.70,0.15,0000 0000 0000 0000 000000
2015-04-16 06:17:58,0.05,0.01,0.00,19.93,22.65,24.42,4.83,25.06,1024.47,2050.00,3494.25,3350.99,3636.01,349.19,353.27,0.18,0000 0000 0000 0000 000000
2015-04-16 06:22:59,0.09,0.01,0.00,20.38,22.62,24.78,4.84,25.13,1024.79,2050.36,3494.00,3350.99,3636.01,350.21,353.46,0.21,0000 0000 0000 0000 000000
2015-04-16 06:28:00,0.07,0.02,0.00,20.75,22.62,24.94,4.76,24.88,1024.89,2050.91,3493.67,3350.97,3635.92,349.79,353.06,0.24,0000 0000 0000 0000 000000
2015-04-16 06:33:02,0.06,0.02,0.00,21.18,22.63,25.05,4.84,24.96,1024.91,2050.97,3492.98,3350.51,3635.22,350.35,352.86,0.27,0000 0000 0000 0000 000000
2015-04-16 06:38:03,0.04,0.02,0.00,21.48,22.69,25.25,4.79,24.84,1024.92,2050.99,3492.15,3350.01,3634.88,349.46,351.89,0.30,0000 0000 0000 0000 000000
2015-04-16 06:43:04,0.08,0.02,0.00,21.84,22.76,25.49,4.83,24.77,1024.93,2050.98,3491.36,3349.38,3634.00,349.94,351.84,0.32,0000 0000 0000 0000 000000
2015-04-16 06:48:05,0.07,0.03,0.00,22.17,22.85,25.75,4.78,24.80,1025.00,2050.98,3490.38,3348.75,3633.09,350.10,351.54,0.35,0000 0000 0000 0000 000000
2015-04-16 06:53:07,0.02,0.03,0.00,22.54,22.96,26.12,4.73,25.00,1025.16,2050.70,3489.26,3347.81,3632.12,349.86,351.04,0.38,0000 0000 0000 0000 000000
2015-04-16 06:58:08,0.03,0.03,0.00,22.83,23.08,26.53,4.75,24.75,1025.29,2050.05,3487.91,3346.75,3630.85,349.63,350.68,0.41,0000 0000 0000 0000 000000
2015-04-16 07:03:09,0.12,0.03,0.00,23.13,23.22,26.84,4.69,24.68,1025.34,2050.00,3486.61,3345.63,3629.60,349.58,350.04,0.44,0000 0000 0000 0000 000000
2015-04-16 07:08:10,-0.01,0.03,0.00,23.40,23.37,27.13,4.71,24.58,1025.37,2049.42,3485.09,3344.34,3628.10,349.78,349.90,0.47,0000 0000 0000 0000 000000
2015-04-16 07:13:11,0.11,0.03,0.00,23.75,23.53,27.40,4.84,24.61,1025.40,2049.00,3483.52,3342.95,3626.54,350.20,349.89,0.50,0000 0000 0000 0000 000000
2015-04-16 07:18:12,0.02,0.04,0.00,23.91,23.70,27.65,4.84,24.72,1025.41,2048.47,3481.82,3341.52,3624.90,350.52,350.01,0.53,0000 0000 0000 0000 000000
2015-04-16 07:23:14,0.08,0.04,0.00,24.04,23.88,27.91,4.75,24.63,1025.43,2047.85,3480.12,3339.89,3623.12,350.11,349.63,0.56,0000 0000 0000 0000 000000
2015-04-16 07:28:15,0.03,0.04,0.00,24.32,24.06,28.15,4.73,24.66,1025.46,2047.08,3478.33,3338.36,3621.33,350.13,349.29,0.59,0000 0000 0000 0000 000000
2015-04-16 07:33:16,0.15,0.04,0.00,24.60,24.25,28.37,4.75,24.68,1025.69,2046.97,3476.53,3336.73,3619.52,349.66,348.66,0.62,0000 0000 0000 0000 000000
2015-04-16 07:38:18,0.02,0.04,0.00,24.80,24.45,28.60,4.73,24.70,1025.86,2046.22,3474.71,3335.07,3617.64,350.41,349.01,0.65,0000 0000 0000 0000 000000
2015-04-16 07:43:19,0.03,0.05,0.00,25.01,24.65,28.83,4.77,24.57,1025.87,2045.41,3472.72,3333.28,3615.58,350.30,348.56,0.68,0000 0000 0000 0000 000000
2015-04-16 07:48:20,0.10,0.05,0.00,25.04,24.85,29.04,4.69,24.38,1025.89,2044.84,3470.91,3331.61,3613.63,349.63,348.07,0.71,0000 0000 0000 0000 000000
2015-04-16 07:53:21,0.06,0.05,0.00,25.51,25.04,29.27,4.66,24.40,1025.90,2044.03,3468.95,3329.83,3611.61,349.90,347.80,0.73,0000 0000 0000 0000 000000
2015-04-16 07:58:23,0.04,0.05,0.00,25.32,25.24,29.30,4.73,24.60,1025.90,2043.23,3466.87,3328.00,3609.56,349.91,348.02,0.76,0000 0000 0000 0000 000000
2015-04-16 08:03:24,0.03,0.05,0.00,24.76,25.43,29.01,4.69,24.42,1025.91,2042.45,3464.77,3326.36,3607.54,350.30,349.19,0.79,0000 0000 0000 0000 000000
2015-04-16 08:08:25,0.15,0.05,0.00,24.40,25.60,29.13,4.74,24.46,1025.91,2041.95,3462.79,3324.70,3605.69,350.17,349.32,0.82,0000 0000 0000 0000 000000
2015-04-16 08:13:27,-0.00,0.06,0.00,24.17,25.75,29.24,4.81,24.63,1025.90,2041.15,3460.87,3323.29,3603.98,350.23,349.80,0.85,0000 0000 0000 0000 000000
2015-04-16 08:18:28,0.11,0.06,0.00,24.22,25.87,29.37,4.72,24.54,1025.90,2040.91,3459.16,3321.81,3602.48,349.08,348.60,0.88,0000 0000 0000 0000 000000
2015-04-16 08:23:29,0.01,0.06,0.00,24.60,25.98,29.27,4.76,24.57,1025.91,2040.22,3457.58,3320.59,3601.04,350.13,349.18,0.91,0000 0000 0000 0000 000000
2015-04-16 08:28:31,0.10,0.06,0.00,24.59,26.08,29.14,4.86,24.52,1025.91,2039.99,3456.10,3319.41,3599.61,350.36,349.43,0.94,0000 0000 0000 0000 000000
2015-04-16 08:33:32,-0.00,0.06,0.00,24.82,26.17,29.18,4.64,24.46,1025.92,2039.45,3454.59,3318.06,3598.19,349.62,348.47,0.97,0000 0000 0000 0000 000000
2015-04-16 08:38:33,0.11,0.06,0.00,24.77,26.26,29.28,4.81,24.56,1025.93,2039.00,3453.14,3316.78,3596.70,350.03,348.61,1.00,0000 0000 0000 0000 000000
2015-04-16 08:43:35,0.01,0.07,0.00,24.91,26.36,29.35,4.75,24.61,1025.98,2038.42,3451.46,3315.43,3595.20,350.23,348.80,1.03,0000 0000 0000 0000 000000
2015-04-16 08:48:36,0.10,0.07,0.00,25.59,26.46,29.39,4.71,24.48,1026.15,2038.01,3449.89,3314.16,3593.71,350.00,348.00,1.06,0000 0000 0000 0000 000000
2015-04-16 08:53:37,0.06,0.07,0.00,25.48,26.56,29.55,4.66,24.49,1026.24,2037.76,3448.52,3312.89,3592.40,349.26,347.35,1.09,0000 0000 0000 0000 000000
2015-04-16 08:58:38,0.03,0.07,0.00,24.85,26.66,29.80,4.78,24.50,1026.32,2037.04,3446.91,3311.72,3590.97,349.94,348.83,1.12,0000 0000 0000 0000 000000
2015-04-16 09:03:39,0.12,0.07,0.00,24.45,26.74,30.07,4.80,24.50,1026.29,2036.95,3445.13,3310.43,3589.61,350.10,349.40,1.14,0000 0000 0000 0000 000000
2015-04-16 09:08:41,-0.00,0.08,0.00,24.20,26.81,30.16,4.80,24.44,1026.22,2036.46,3443.71,3309.47,3588.46,350.15,349.56,1.17,0000 0000 0000 0000 000000
2015-04-16 09:13:42,0.06,0.08,0.00,24.05,26.86,30.18,4.75,24.35,1026.24,2036.03,3442.53,3308.57,3587.36,349.38,349.11,1.20,0000 0000 0000 0000 000000
2015-04-16 09:18:43,0.06,0.08,0.00,24.42,26.89,30.07,4.76,24.55,1026.23,2036.00,3441.50,3307.87,3586.54,349.64,349.20,1.23,0000 0000 0000 0000 000000
2015-04-16 09:23:45,0.07,0.08,0.00,24.50,26.91,29.97,4.76,24.60,1026.23,2035.99,3440.54,3307.04,3585.72,349.93,349.14,1.26,0000 0000 0000 0000 000000
2015-04-16 09:28:46,0.07,0.08,0.00,24.62,26.94,29.89,4.73,24.64,1026.33,2035.93,3439.57,3306.20,3584.81,349.56,348.63,1.29,0000 0000 0000 0000 000000
2015-04-16 09:33:47,-0.00,0.08,0.00,24.45,26.98,29.80,4.75,24.57,1026.29,2035.48,3438.46,3305.43,3583.88,349.47,348.76,1.32,0000 0000 0000 0000 000000
2015-04-16 09:38:48,0.04,0.08,0.00,24.86,27.01,29.66,4.72,24.63,1026.18,2035.03,3437.30,3304.53,3582.99,349.44,348.55,1.35,0000 0000 0000 0000 000000
2015-04-16 09:43:49,0.08,0.09,0.00,25.58,27.06,29.68,4.69,24.59,1026.22,2035.00,3436.21,3303.64,3582.01,349.93,347.87,1.38,0000 0000 0000 0000 000000
2015-04-16 09:48:51,0.06,0.09,0.00,25.36,27.11,29.84,4.77,24.50,1026.36,2034.92,3435.09,3302.81,3580.99,350.13,348.37,1.41,0000 0000 0000 0000 000000
2015-04-16 09:53:52,-0.02,0.09,0.00,24.76,27.16,30.06,4.73,24.38,1026.38,2034.30,3433.86,3301.92,3580.03,349.48,348.55,1.44,0000 0000 0000 0000 000000
2015-04-16 09:58:53,0.06,0.09,0.00,24.36,27.20,30.32,4.81,24.52,1026.38,2034.03,3432.79,3301.09,3579.15,349.97,349.34,1.47,0000 0000 0000 0000 000000
2015-04-16 10:03:55,0.07,0.09,0.00,24.10,27.22,30.33,4.79,24.54,1026.38,2034.00,3431.87,3300.47,3578.36,349.69,349.48,1.50,0000 0000 0000 0000 000000
2015-04-16 10:08:56,0.03,0.09,0.00,23.94,27.22,30.20,4.76,24.64,1026.38,2034.00,3431.05,3300.01,3577.98,349.55,349.53,1.53,0000 0000 0000 0000 000000
2015-04-16 10:13:57,0.07,0.10,0.00,24.09,27.22,29.99,4.77,24.48,1026.38,2034.00,3430.18,3299.69,3577.19,350.24,350.20,1.55,0000 0000 0000 0000 000000
2015-04-16 10:18:59,0.04,0.10,0.00,24.34,27.21,29.84,4.71,24.18,1026.38,2034.00,3429.61,3299.06,3576.92,349.64,349.09,1.58,0000 0000 0000 0000 000000
2015-04-16 10:24:00,0.06,0.10,0.00,24.37,27.20,29.86,4.81,24.41,1026.38,2034.00,3428.83,3298.66,3576.11,350.08,349.51,1.61,0000 0000 0000 0000 000000
2015-04-16 10:29:02,0.05,0.10,0.00,24.38,27.20,29.86,4.83,24.50,1026.38,2034.00,3427.99,3298.01,3575.66,350.21,349.62,1.64,0000 0000 0000 0000 000000
2015-04-16 10:34:03,0.07,0.10,0.00,24.58,27.22,29.87,4.82,24.41,1026.38,2034.00,3427.13,3297.29,3574.91,350.52,349.85,1.67,0000 0000 0000 0000 000000
2015-04-16 10:39:05,0.06,0.10,0.00,25.28,27.24,29.76,4.74,24.45,1026.38,2033.97,3426.13,3296.72,3574.04,349.83,348.19,1.70,0000 0000 0000 0000 000000
2015-04-16 10:44:06,0.05,0.11,0.00,25.01,27.26,29.84,4.78,24.48,1026.38,2033.88,3425.15,3296.02,3573.16,350.53,349.19,1.73,0000 0000 0000 0000 000000
2015-04-16 10:49:07,0.05,0.11,0.00,24.49,27.29,30.09,4.78,24.44,1026.38,2033.71,3424.33,3295.47,3572.55,350.02,349.02,1.76,0000 0000 0000 0000 000000
2015-04-16 10:54:08,-0.00,0.11,0.00,24.17,27.30,30.35,4.81,24.56,1026.37,2033.47,3423.36,3294.91,3571.97,349.91,349.33,1.79,0000 0000 0000 0000 000000
2015-04-16 10:59:09,0.08,0.11,0.00,24.00,27.30,30.31,4.81,24.48,1026.34,2033.40,3422.50,3294.18,3571.22,350.13,349.96,1.82,0000 0000 0000 0000 000000
2015-04-16 11:04:10,0.03,0.11,0.00,24.18,27.30,30.16,4.81,24.55,1026.37,2033.44,3421.79,3293.99,3570.99,350.08,349.58,1.85,0000 0000 0000 0000 000000
2015-04-16 11:09:12,0.09,0.11,0.00,24.50,27.29,29.97,4.81,24.40,1026.38,2033.55,3421.04,3293.47,3570.33,350.23,349.54,1.88,0000 0000 0000 0000 000000
2015-04-16 11:14:13,0.05,0.12,0.00,24.32,27.27,29.95,4.78,24.51,1026.38,2033.70,3420.37,3293.01,3569.99,349.55,348.94,1.91,0000 0000 0000 0000 000000
2015-04-16 11:19:14,0.06,0.12,0.00,24.51,27.27,29.94,4.78,24.48,1026.38,2033.59,3419.67,3292.60,3569.24,350.06,349.31,1.94,0000 0000 0000 0000 000000
2015-04-16 11:24:16,-0.02,0.12,0.00,24.72,27.27,29.97,4.75,24.67,1026.38,2033.30,3418.80,3292.01,3568.75,350.00,348.88,1.96,0000 0000 0000 0000 000000
2015-04-16 11:29:17,0.08,0.12,0.00,24.76,27.30,29.87,4.77,24.44,1026.38,2033.14,3417.67,3291.19,3567.75,350.37,349.32,1.99,0000 0000 0000 0000 000000
2015-04-16 11:34:18,0.10,0.12,0.00,24.84,27.32,29.90,4.73,24.50,1026.38,2033.02,3416.10,3290.06,3566.51,350.36,348.76,2.02,0000 0000 0000 0000 000000
2015-04-16 11:39:20,0.07,0.12,0.00,25.34,27.35,29.94,4.84,24.40,1026.38,2033.01,3414.95,3289.23,3565.77,350.98,349.09,2.05,0000 0000 0000 0000 000000
2015-04-16 11:44:21,0.09,0.13,0.00,25.15,27.39,30.09,4.71,24.57,1026.38,2033.00,3413.93,3288.30,3564.83,349.57,348.16,2.08,0000 0000 0000 0000 000000
2015-04-16 11:49:22,0.05,0.13,0.00,24.53,27.42,30.36,4.76,24.43,1026.38,2033.00,3412.93,3287.94,3564.06,350.02,349.23,2.11,0000 0000 0000 0000 000000
2015-04-16 11:54:24,0.10,0.13,0.00,24.11,27.45,30.50,4.84,24.63,1026.38,2032.98,3411.70,3287.00,3563.13,350.46,350.27,2.14,0000 0000 0000 0000 000000
2015-04-16 11:59:25,0.15,0.13,0.00,23.89,27.45,30.36,4.77,24.36,1026.38,2032.97,3409.90,3285.78,3561.78,349.92,349.96,2.17,0000 0000 0000 0000 000000
2015-04-16 12:04:26,0.12,0.14,0.00,24.33,27.45,30.09,4.80,24.38,1026.38,2032.97,3408.20,3284.59,3560.50,349.91,349.24,2.20,0000 0000 0000 0000 000000
2015-04-16 12:09:27,0.11,0.14,0.00,24.25,27.45,29.97,4.78,24.47,1026.34,2032.98,3406.42,3283.45,3559.28,350.08,349.70,2.23,0000 0000 0000 0000 000000
2015-04-16 12:14:28,0.13,0.15,0.00,24.21,27.45,30.00,4.81,24.52,1026.37,2032.97,3404.85,3282.34,3557.91,350.04,349.58,2.26,0000 0000 0000 0000 000000
2015-04-16 12:19:30,0.25,0.15,0.00,24.49,27.45,30.13,4.80,24.62,1026.38,2032.99,3401.82,3280.20,3555.69,350.11,349.38,2.29,0000 0000 0000 0000 000000
2015-04-16 12:24:31,0.28,0.16,0.00,24.68,27.45,30.18,4.69,24.58,1026.38,2032.96,3398.11,3277.47,3552.81,349.82,348.81,2.32,0000 0000 0000 0000 000000
2015-04-16 12:29:32,0.22,0.17,0.00,24.77,27.46,30.22,4.77,24.52,1026.38,2032.89,3394.78,3275.04,3550.17,350.23,349.20,2.35,0000 0000 0000 0000 000000
2015-04-16 12:34:33,0.17,0.17,0.00,24.79,27.48,30.19,4.73,24.56,1026.38,2032.35,3391.57,3272.60,3547.51,350.42,349.32,2.38,0000 0000 0000 0000 000000
2015-04-16 12:39:35,0.25,0.18,0.00,25.32,27.51,30.16,4.79,24.52,1026.38,2032.09,3388.13,3270.00,3544.82,350.42,348.61,2.40,0000 0000 0000 0000 000000
2015-04-16 12:44:36,0.20,0.19,0.00,24.94,27.54,30.32,4.76,24.42,1026.38,2032.02,3385.10,3267.75,3542.50,350.29,349.16,2.43,0000 0000 0000 0000 000000
2015-04-16 12:49:37,0.08,0.19,0.00,24.32,27.57,30.55,4.83,24.43,1026.38,2032.00,3383.73,3266.83,3541.45,349.63,349.28,2.46,0000 0000 0000 0000 000000
2015-04-16 12:54:39,0.15,0.19,0.00,23.94,27.57,30.54,4.75,24.51,1026.38,2032.00,3381.93,3265.62,3539.89,349.56,349.58,2.49,0000 0000 0000 0000 000000
2015-04-16 12:59:40,0.14,0.20,0.00,23.90,27.57,30.25,4.77,24.44,1026.38,2032.00,3379.72,3264.15,3538.30,349.71,349.55,2.52,0000 0000 0000 0000 000000
2015-04-16 13:04:41,0.17,0.20,0.00,24.33,27.57,30.03,4.78,24.40,1026.39,2032.00,3377.53,3262.71,3536.63,349.90,349.32,2.55,0000 0000 0000 0000 000000
2015-04-16 13:09:43,0.20,0.21,0.00,24.34,27.55,30.12,4.79,24.56,1026.38,2032.00,3374.96,3260.90,3534.64,350.25,349.82,2.58,0000 0000 0000 0000 000000
2015-04-16 13:14:44,0.18,0.21,0.00,24.50,27.55,30.18,4.76,24.60,1026.38,2032.00,3372.45,3259.10,3532.67,349.88,349.20,2.61,0000 0000 0000 0000 000000
2015-04-16 13:19:45,0.24,0.22,0.00,24.58,27.54,30.25,4.78,24.62,1026.38,2032.01,3369.53,3256.93,3530.39,350.14,349.29,2.64,0000 0000 0000 0000 000000
2015-04-16 13:24:46,0.20,0.23,0.00,24.69,27.55,30.27,4.79,24.48,1026.38,2032.00,3366.77,3254.89,3528.25,350.12,349.08,2.67,0000 0000 0000 0000 000000
2015-04-16 13:29:48,0.22,0.23,0.00,24.82,27.55,30.30,4.74,24.49,1026.38,2032.00,3364.11,3252.84,3525.99,349.88,348.62,2.70,0000 0000 0000 0000 000000
2015-04-16 13:34:49,0.22,0.24,0.00,25.10,27.57,30.27,4.81,24.51,1026.38,2032.00,3361.34,3250.64,3523.54,349.85,348.40,2.73,0000 0000 0000 0000 000000
2015-04-16 13:39:50,0.29,0.25,0.00,25.34,27.60,30.28,4.70,24.52,1026.38,2031.98,3357.81,3247.92,3520.65,349.61,347.87,2.76,0000 0000 0000 0000 000000
2015-04-16 13:44:52,0.30,0.26,0.00,24.71,27.62,30.50,4.75,24.46,1026.38,2031.92,3353.90,3244.93,3517.53,349.74,348.70,2.78,0000 0000 0000 0000 000000
2015-04-16 13:49:53,0.29,0.27,0.00,24.12,27.65,30.65,4.76,24.47,1026.38,2031.81,3350.19,3242.07,3514.45,349.17,348.94,2.81,0000 0000 0000 0000 000000
2015-04-16 13:54:54,0.28,0.27,0.00,23.80,27.65,30.43,4.81,24.45,1026.38,2031.82,3346.49,3239.39,3511.52,350.02,350.02,2.84,0000 0000 0000 0000 000000
2015-04-16 13:59:55,0.27,0.28,0.00,24.03,27.64,30.06,4.74,24.35,1026.38,2031.89,3343.20,3236.89,3508.85,350.01,349.70,2.87,0000 0000 0000 0000 000000
2015-04-16 14:04:56,0.27,0.29,0.00,24.25,27.62,29.96,4.78,24.47,1026.37,2031.97,3339.99,3234.41,3506.13,349.71,349.23,2.90,0000 0000 0000 0000 000000
2015-04-16 14:09:58,0.26,0.30,0.00,24.24,27.60,30.06,4.74,24.58,1026.32,2031.98,3336.66,3231.94,3503.63,349.91,349.40,2.93,0000 0000 0000 0000 000000
2015-04-16 14:14:59,0.25,0.31,0.00,24.39,27.59,30.20,4.75,24.58,1026.38,2031.98,3333.50,3229.49,3501.02,349.85,349.28,2.96,0000 0000 0000 0000 000000
2015-04-16 14:20:00,0.26,0.31,0.00,24.46,27.57,30.23,4.81,24.51,1026.38,2031.98,3330.32,3227.09,3498.38,349.70,349.01,2.99,0000 0000 0000 0000 000000
2015-04-16 14:25:01,0.27,0.32,0.00,24.60,27.57,30.30,4.80,24.70,1026.38,2031.98,3326.89,3224.56,3495.74,349.66,348.65,3.02,0000 0000 0000 0000 000000
2015-04-16 14:30:03,0.26,0.33,0.00,24.72,27.58,30.36,4.78,24.62,1026.27,2031.98,3323.64,3222.07,3493.14,350.27,349.24,3.05,0000 0000 0000 0000 000000
2015-04-16 14:35:04,0.22,0.34,0.00,24.83,27.60,30.39,4.77,24.63,1026.26,2031.96,3320.55,3219.78,3490.79,349.78,348.61,3.08,0000 0000 0000 0000 000000
2015-04-16 14:40:05,0.22,0.34,0.00,25.08,27.62,30.40,4.77,24.60,1026.30,2031.94,3317.82,3217.66,3488.36,350.08,348.48,3.11,0000 0000 0000 0000 000000
2015-04-16 14:45:07,0.16,0.35,0.00,25.28,27.65,30.40,4.74,24.48,1026.19,2031.47,3315.06,3215.36,3485.74,350.02,348.17,3.14,0000 0000 0000 0000 000000
2015-04-16 14:50:08,0.19,0.35,0.00,24.59,27.67,30.64,4.75,24.48,1026.09,2031.15,3312.11,3213.18,3483.38,349.98,349.07,3.17,0000 0000 0000 0000 000000
2015-04-16 14:55:09,0.22,0.36,0.00,23.98,27.70,30.68,4.83,24.49,1026.07,2031.05,3309.09,3211.04,3481.14,350.78,350.65,3.20,0000 0000 0000 0000 000000
2015-04-16 15:00:11,0.21,0.37,0.00,23.71,27.70,30.45,4.83,24.34,1026.05,2031.09,3306.50,3209.24,3479.11,350.12,350.20,3.22,0000 0000 0000 0000 000000
2015-04-16 15:05:12,0.21,0.37,0.00,24.08,27.69,30.11,4.75,24.41,1025.96,2031.10,3303.99,3207.24,3476.93,349.54,349.16,3.25,0000 0000 0000 0000 000000
2015-04-16 15:10:13,0.22,0.38,0.00,24.12,27.67,30.08,4.77,24.50,1025.91,2031.12,3301.19,3205.20,3474.68,349.86,349.44,3.28,0000 0000 0000 0000 000000
2015-04-16 15:15:15,0.25,0.39,0.00,24.16,27.65,30.15,4.77,24.58,1025.90,2031.28,3298.44,3203.20,3472.66,349.84,349.34,3.31,0000 0000 0000 0000 000000
2015-04-16 15:20:16,0.18,0.39,0.00,24.33,27.64,30.21,4.77,24.45,1025.91,2031.26,3295.83,3201.25,3470.51,350.11,349.38,3.34,0000 0000 0000 0000 000000
2015-04-16 15:25:17,0.19,0.40,0.00,24.46,27.62,30.32,4.80,24.67,1025.92,2031.18,3293.43,3199.40,3468.35,350.03,349.04,3.37,0000 0000 0000 0000 000000
2015-04-16 15:30:19,0.24,0.41,0.00,24.56,27.62,30.36,4.79,24.57,1025.90,2031.09,3290.30,3197.20,3465.92,349.73,348.60,3.40,0000 0000 0000 0000 000000